{"data":{"norad_id":68876,"intl_designator":"2026-095N","name":"KUIPER-00480","alt_names":[],"object_type":"PAYLOAD","status":"ACTIVE","operator":null,"country":"US","launch_date":"2026-04-28","launch_site_code":"AFETR","launch_vehicle":null,"mission":null,"orbit_class":"UNKNOWN","rcs_meters":null,"size_class":null,"mass_kg":null,"dimensions":null,"purposes":[],"wikipedia_slug":null,"has_3d_model":false,"image_url":null,"decayed_at":null,"tle_current":{"epoch":"2026-09-19T23:58:20.981280Z","epoch_age_seconds":58742,"freshness":"FRESH","line1":"1 68876U 26095N   26262.99885395  .00001936  00000+0  28290-3 0  9993","line2":"2 68876  51.9040 171.4207 0000887  91.2902 268.8162 14.79931626 21930","mean_motion":14.79931626,"eccentricity":8.87e-5,"inclination_deg":51.904,"raan_deg":171.4207,"arg_perigee_deg":91.2902,"mean_anomaly_deg":268.8162,"bstar":0.0002829,"rev_number":2193,"period_min":97.301792508622,"perigee_km":628.91838560894,"apogee_km":630.16154750281,"semimajor_km":7007.6769665559,"source":"CELESTRAK","updated_at":"2026-09-20T09:00:24.535135Z"}}}